This is the latest recevied weather packets stored in our database for station/object N4PWG. If no packets are shown the sender has not sent any weather packets the latest 10 day(s).
| Time | Temp. | Humidity | Pressure | Rain* | Wind** | Luminosity | Snow |
|---|---|---|---|---|---|---|---|
| 1777359492 | 19.44° C | 92% | 1027.4 hPa | 1.27 mm | - | 0 W/m² | - |
| 1777359188 | 20° C | 93% | 1028.1 hPa | 1.27 mm | - | 0 W/m² | - |
| 1777358886 | 19.44° C | 94% | 1027.4 hPa | 0 mm | - | 0 W/m² | - |
| 1777358583 | 19.44° C | 95% | 1028.3 hPa | 0 mm | - | 0 W/m² | - |
| 1777358281 | 19.44° C | 95% | 1028.5 hPa | 0 mm | - | 0 W/m² | - |
| 1777357979 | 20° C | 94% | 1027.9 hPa | 1.78 mm | - | 0 W/m² | - |
| 1777357675 | 20° C | 93% | 1027.6 hPa | 1.78 mm | - | 0 W/m² | - |
| 1777357372 | 20° C | 92% | 1027.6 hPa | 1.78 mm | - | 0 W/m² | - |
| 1777357069 | 20.56° C | 90% | 1027.2 hPa | 1.78 mm | - | 0 W/m² | - |
| 1777356766 | 21.11° C | 87% | 1028 hPa | 0 mm | - | 0 W/m² | - |
| 1777356464 | 21.67° C | 84% | 1028 hPa | 0 mm | - | 0 W/m² | - |
| 1777356160 | 22.22° C | 81% | 1027.7 hPa | 0 mm | - | 0 W/m² | - |
| 1777355857 | 22.78° C | 77% | 1028.3 hPa | 0 mm | - | 0 W/m² | - |
| 1777355554 | 23.89° C | 73% | 1027.5 hPa | 0 mm | - | 0 W/m² | - |
| 1777355251 | 23.89° C | 81% | 1026.9 hPa | 0 mm | - | 0 W/m² | - |
| 1777354947 | 23.89° C | 87% | 1025.3 hPa | 0 mm | - | 0 W/m² | - |
| 1777354643 | 24.44° C | 91% | 1026.8 hPa | 0 mm | - | 0 W/m² | - |
| 1777354339 | 23.89° C | 90% | 1026.6 hPa | 0 mm | - | 0 W/m² | - |
| 1777354036 | 24.44° C | 91% | 1027.5 hPa | 10.16 mm | - | 0 W/m² | - |
| 1777353732 | 25.56° C | 90% | 1028 hPa | 10.16 mm | - | 0 W/m² | - |
| 1777353430 | 25.56° C | 87% | 1028.4 hPa | 0 mm | - | 0 W/m² | - |
| 1777353128 | 25.56° C | 86% | 1027.6 hPa | 0 mm | - | 0 W/m² | - |
| 1777352826 | 25.56° C | 86% | 1027.8 hPa | 0 mm | - | 0 W/m² | - |
| 1777352524 | 25.56° C | 85% | 1027.6 hPa | 0 mm | - | 0 W/m² | - |
| 1777352222 | 25.56° C | 85% | 1027.5 hPa | 0 mm | - | 0 W/m² | - |
* Rain latest hour (hover to see other rain measurements)
** Current wind speed in m/s (hover to see current wind gust speed)